Location: Newark
(42.9260°N, 89.3850°W)
Time: 17:25:08
(UTC+00:00)

STARLINK 1013 - Pass Details

Date: 11 December 2019
Orbit: 348 x 351 km, 53.0° (Epoch: 24 January)

Event Time Altitude Azimuth Distance (km) Brightness Sun altitude
Exits shadow 11:18:11 46° 157° (SSE) 526 3.7 -21.2°
Drops below altitude 10° 11:20:33 10° 136° (SE) 1,393 6.5 -20.8°
Sets 11:22:34 0° 134° (SE) 2,231 7.7 -20.4°
